Hourly Data Report for July 22, 2021

TORONTO CITY
ONTARIO
Current Station Operator: ECCC - MSC

43°40'00.000" N
79°24'00.000" W
112.50 m
6158355
71508
XTO

Download Data

Hourly Data (July 2021)
Hourly Data Report for July 22, 2021
TIME
LST
Temp Definition
°C
Dew Point Definition
°C
Rel Hum Definition
%
Precip. Amount Definition
mm

Wind Dir Definition
10's deg

Wind Spd Definition
km/h
Visibility Definition
km
Stn Press Definition
kPa
Hmdx Definition


Wind Chill Definition


Weather Definition


00:00 18.3 11.0 62 0.0       100.65     LegendNANA
01:00 18.0 11.4 65 0.0       100.65     LegendNANA
02:00 17.4 11.8 69 0.0       100.64     LegendNANA
03:00 16.4 12.1 76 0.0       100.70     LegendNANA
04:00 15.9 11.5 75 0.0       100.71     LegendNANA
05:00 16.4 10.5 68 0.0       100.76     LegendNANA
06:00 16.8 10.0 64 0.0       100.81     LegendNANA
07:00 17.6 10.2 62 0.0       100.81     LegendNANA
08:00 20.0 11.3 57 0.0       100.84     LegendNANA
09:00 21.9 11.4 51 0.0       100.83     LegendNANA
10:00 23.7 10.7 44 0.0       100.81 25   LegendNANA
11:00 24.4 8.2 36 0.0       100.83 25   LegendNANA
12:00 25.3 10.7 40 0.0       100.82 27   LegendNANA
13:00 24.6 13.9 51 0.0       100.78 28   LegendNANA
14:00 23.9 12.2 48 0.0       100.77 26   LegendNANA
15:00 24.6 10.5 41 0.0       100.74 26   LegendNANA
16:00 24.6 8.7 36 0.0       100.73 25   LegendNANA
17:00 24.5 8.2 35 0.0       100.73 25   LegendNANA
18:00 24.2 8.6 37 0.0       100.74 25   LegendNANA
19:00 23.8 8.4 37 0.0       100.77     LegendNANA
20:00 22.9 9.2 42 0.0       100.79     LegendNANA
21:00 22.3 9.0 42 0.0       100.83     LegendNANA
22:00 21.6 8.7 43 0.0       100.84     LegendNANA
23:00 20.2 9.2 49 0.0       100.84     LegendNANA

Notes on Data Quality.

Legend

  • E = Estimated
  • M = Missing
  • NA = Not Available*
  • [empty] = Indicates an unobserved value
Date modified: